TimeCDT,TemperatureF,Dew PointF,Humidity,Sea Level PressureIn,VisibilityMPH,Wind Direction,Wind SpeedMPH,Gust SpeedMPH,PrecipitationIn,Events,Conditions,WindDirDegrees,DateUTC
12:15 AM,85.5,65.3,51,29.86,10.0,SE,13.8,19.6,N/A,,Clear,140,2013-07-15 05:15:00
12:55 AM,82.4,66.0,57,29.86,10.0,SE,13.8,17.3,N/A,,Clear,130,2013-07-15 05:55:00
2:15 AM,80.6,69.3,68,29.86,10.0,SE,15.0,-,N/A,,Clear,140,2013-07-15 07:15:00
2:35 AM,80.4,69.8,70,29.87,10.0,SE,10.4,16.1,N/A,,Clear,140,2013-07-15 07:35:00
2:55 AM,79.7,69.6,71,29.87,10.0,SE,11.5,-,N/A,,Scattered Clouds,140,2013-07-15 07:55:00
3:15 AM,79.2,69.8,73,29.86,10.0,SE,11.5,18.4,N/A,,Mostly Cloudy,140,2013-07-15 08:15:00
3:35 AM,79.2,70.5,75,29.86,10.0,SE,11.5,-,N/A,,Light Drizzle,130,2013-07-15 08:35:00
3:55 AM,78.4,70.7,77,29.85,10.0,SE,10.4,17.3,N/A,,Scattered Clouds,140,2013-07-15 08:55:00
4:35 AM,78.1,70.7,78,29.86,10.0,ESE,3.5,-,N/A,,Clear,120,2013-07-15 09:35:00
4:55 AM,77.9,70.9,79,29.86,10.0,SE,8.1,-,N/A,,Clear,130,2013-07-15 09:55:00
5:15 AM,77.9,71.1,79,29.88,10.0,ESE,6.9,-,N/A,,Scattered Clouds,110,2013-07-15 10:15:00
5:35 AM,77.9,71.2,80,29.88,10.0,Calm,Calm,-,N/A,,Scattered Clouds,0,2013-07-15 10:35:00
5:55 AM,77.9,71.6,81,29.87,10.0,SE,12.7,-,N/A,,Scattered Clouds,140,2013-07-15 10:55:00
6:55 AM,77.9,72.0,82,29.89,10.0,Calm,Calm,-,N/A,,Mostly Cloudy,0,2013-07-15 11:55:00
7:15 AM,77.9,71.8,81,29.90,10.0,Calm,Calm,-,N/A,,Mostly Cloudy,0,2013-07-15 12:15:00
7:35 AM,77.9,71.8,81,29.90,10.0,Calm,Calm,-,N/A,,Overcast,0,2013-07-15 12:35:00
7:55 AM,77.9,71.8,81,29.91,10.0,Calm,Calm,-,N/A,,Mostly Cloudy,0,2013-07-15 12:55:00
11:55 AM,79.2,72.7,80,29.96,10.0,Calm,Calm,-,N/A,Rain,Light Rain,0,2013-07-15 16:55:00
12:15 PM,79.2,72.5,80,29.97,10.0,Calm,Calm,-,N/A,Rain,Light Rain,0,2013-07-15 17:15:00
6:35 PM,85.1,72.7,66,29.91,10.0,ENE,15.0,18.4,N/A,,Clear,60,2013-07-15 23:35:00
7:15 PM,79.2,70.3,74,29.93,10.0,ENE,11.5,16.1,N/A,,Clear,70,2013-07-16 00:15:00
7:35 PM,78.6,70.2,75,29.94,10.0,East,6.9,-,N/A,Thunderstorm,Clear,90,2013-07-16 00:35:00
7:55 PM,79.2,69.6,72,29.94,10.0,East,10.4,18.4,N/A,,Clear,90,2013-07-16 00:55:00
8:15 PM,77.9,68.4,72,29.95,10.0,East,5.8,18.4,N/A,,Clear,100,2013-07-16 01:15:00
8:55 PM,77.9,68.5,73,29.97,10.0,Calm,Calm,-,N/A,,Clear,0,2013-07-16 01:55:00
9:55 PM,77.7,70.9,79,29.98,10.0,ENE,9.2,-,N/A,,Clear,60,2013-07-16 02:55:00
10:55 PM,75.4,69.3,81,29.99,10.0,Calm,Calm,-,N/A,,Clear,0,2013-07-16 03:55:00
11:15 PM,75.4,70.0,83,29.99,10.0,Calm,Calm,-,N/A,,Clear,0,2013-07-16 04:15:00
11:55 PM,75.4,69.8,83,30.01,10.0,Calm,Calm,-,N/A,,Clear,0,2013-07-16 04:55:00